Погода в Демьяновке

Россия / Кемеровская область (Кузбасс)     54°44′59″N   86°14′39″E
темп.,
°C
ветер,
м/с
пор.,
м/с
влажн.,
%
обл.,
%
осадки,
мм/ч
давл.,
гПа
погр.,
м
14 апреля, ср
ср1401:000зюз51097100 0.3 1032530
04:000з61198100 0.8 1031583
07:00+1з51088100 0.8 1031550
10:00+1юз61196100 0.0 1031575
13:00+2юз81499100 0.4 1028788
16:00+1зюз81698100 3.5 1026818
19:00+3зюз71487100 3.6 1024649
22:00+2зюз51293100 0.1 1025543
15 апреля, чт
чт1501:00+1зюз41099100 0.1 1025341
04:00+1зюз3799100 0.1 1025229
07:00+1зюз2499100 0.1 1026106
10:00+2ююз23100100 0.0 102785
13:00+2ююз25100100 0.0 1026179
16:00+3ю36100100 0.0 1025228
19:00+3ююз3798100 0.0 1024201
22:00+2ююз4998100 0.1 1023282
16 апреля, пт
пт1601:00+2ююз4899100 0.1 1022218
04:00+2ююз41098100 0.0 1020238
07:00+3ююз4109627 0.0 1019250
10:00+5ююз6139188 0.0 1018416
13:00+10юз711806 0.0 1015825
16:00+12юз811759 0.0 10131177
19:00+11юз7127522 0.0 1012523
22:00+9ююз61386100 0.0 1011362
17 апреля, сб
сб1701:00+5ссз6893100 0.2 1012312
04:00+1ссв71292100 0.1 1014614
07:000ссв71185100 0.1 1016763
10:00+1ссв7876100 0.0 1016835
13:00−1ссв71090100 2.9 1010797
16:00+1ссв6766100 0.0 1015901
19:000ссв567075 0.0 1014793
22:00−2с35795 0.0 1014374
18 апреля, вс
вс1801:00−3сз23785 0.0 1013265
04:00−2з237498 0.0 1012287
07:00−2зюз2372100 0.0 1011291
10:00+1зюз3462100 0.0 1010778
13:00+3з4658100 0.0 10091227
16:00+5зюз5852100 0.1 10091611
19:00−1зсз2354100 0.0 1020981
22:00−1зсз5960100 0.0 1014483